{"data":{"norad_id":50834,"intl_designator":"2022-001AH","name":"STARLINK-3331","alt_names":[],"object_type":"PAYLOAD","status":"ACTIVE","operator":null,"country":"US","launch_date":"2022-01-06","launch_site_code":"AFETR","launch_vehicle":null,"mission":null,"orbit_class":"UNKNOWN","rcs_meters":null,"size_class":null,"mass_kg":null,"dimensions":null,"purposes":["comms"],"wikipedia_slug":null,"has_3d_model":false,"image_url":null,"decayed_at":null,"tle_current":{"epoch":"2026-09-20T00:05:53.242080Z","epoch_age_seconds":91136,"freshness":"FRESH","line1":"1 50834U 22001AH  26263.00408845 -.00000962  00000+0 -17912-4 0  9995","line2":"2 50834  53.1601  12.3477 0001134  93.6882 266.4250 15.33555813259793","mean_motion":15.33555813,"eccentricity":0.0001134,"inclination_deg":53.1601,"raan_deg":12.3477,"arg_perigee_deg":93.6882,"mean_anomaly_deg":266.425,"bstar":-1.7912e-5,"rev_number":25979,"period_min":93.899419101221,"perigee_km":464.4374568612,"apogee_km":465.98952875297,"semimajor_km":6843.3504928071,"source":"CELESTRAK","updated_at":"2026-09-20T09:00:39.580433Z"}}}